Date String (YYYY-MM-DD hh:mm:ss) UTC,Instrument flags,absolute air pressure of the measurement (hPa),sample flow rate (lpm),inlet stack bypass flow (lpm),air temperature of the measurement (°C),ambient temperature measured by the external sensor (°C),aerosol sample conditioner tube jacket temperature (°C),OPC LED temperature (°C),internal box temperature (°C),relative humidity of the measurement (%),span deviation,mass concentration of particles derived from Lorenz-Mie calculation of OPC scattering (μg/m³),mass concentration of particles derived from Lorenz-Mie calculation of OPC scattering (μg/m³),mass concentration of particles derived from Lorenz-Mie calculation of OPC scattering (μg/m³)
DateTimeUTC,F1_M11,P_M11,Q1_M11,Q2_M11,T1_M11,T2_M11,T3_M11,T4_M11,T5_M11,U1_M11,ZSPAN_M11,X0_M11,X2_M11,X1_M11
2024-06-10 21:00:00,SystemResetWarning,0827.2,5.00,000.00,029.1,028.5,000.0,037.3,031.0,040.2,0001.0,0025.42,0011.37,0010.03
2024-06-10 21:01:00,SystemResetWarning,0827.1,5.01,000.00,029.2,028.7,000.0,037.3,031.1,040.4,0000.5,0026.00,0011.44,0010.05
2024-06-10 21:02:00,SystemResetWarning,0827.2,5.00,000.00,029.3,028.8,000.0,037.4,031.2,040.7,-000.3,0026.21,0011.50,0010.11
2024-06-10 21:03:00,SystemResetWarning,0827.1,5.00,000.00,029.3,029.0,000.0,037.4,031.3,039.5,-000.6,0026.88,0011.54,0010.16
2024-06-10 21:04:00,SystemResetWarning,0827.1,4.99,000.00,029.4,029.0,000.0,037.4,031.3,039.3,-000.1,0025.82,0011.62,0010.25
2024-06-10 21:05:00,SystemResetWarning,0827.1,4.99,000.00,029.3,027.4,000.0,037.5,030.5,039.8,-000.1,0024.85,0011.72,0010.37
2024-06-10 21:06:00,SystemResetWarning,0827.0,5.01,000.00,028.9,025.9,000.0,037.5,029.8,039.9,0000.0,0024.87,0011.77,0010.45
2024-06-10 21:07:00,SystemResetWarning,0826.9,5.01,000.00,028.7,025.9,000.0,037.5,029.7,040.2,0000.2,0025.15,0011.82,0010.53
2024-06-10 21:08:00,SystemResetWarning,0826.9,5.00,000.00,028.6,026.2,000.0,037.4,029.8,040.5,0000.3,0025.31,0011.92,0010.62
2024-06-10 21:09:00,SystemResetWarning,0826.9,5.00,000.00,028.7,026.7,000.0,037.3,030.1,040.6,0000.5,0027.14,0012.05,0010.76
2024-06-10 21:10:00,SystemResetWarning,0826.9,5.00,000.00,028.7,027.1,000.0,037.3,030.3,040.8,0000.2,0027.81,0012.18,0010.87
2024-06-10 21:11:00,SystemResetWarning,0826.9,5.00,000.00,028.8,027.5,000.0,037.3,030.5,041.5,0000.0,0028.08,0012.30,0010.99
2024-06-10 21:12:00,SystemResetWarning,0826.9,5.00,000.00,028.9,027.8,000.0,037.2,030.7,041.7,0000.5,0027.99,0012.38,0011.10
2024-06-10 21:13:00,SystemResetWarning,0826.9,5.00,000.00,028.9,028.1,000.0,037.3,030.8,041.7,0001.0,0028.81,0012.45,0011.17
2024-06-10 21:14:00,SystemResetWarning,0826.9,5.00,000.00,029.0,028.4,000.0,037.3,030.9,040.6,0000.4,0027.77,0012.54,0011.26
2024-06-10 21:15:00,SystemResetWarning,0826.9,5.00,000.00,029.1,028.6,000.0,037.3,031.0,041.2,0001.1,0028.50,0012.61,0011.31
2024-06-10 21:16:00,SystemResetWarning,0826.9,4.99,000.00,029.2,028.7,000.0,037.3,031.1,041.3,0002.0,0028.93,0012.58,0011.33
2024-06-10 21:17:00,SystemResetWarning,0826.9,5.00,000.00,029.3,028.9,000.0,037.4,031.2,041.3,0001.7,0029.57,0012.60,0011.37
2024-06-10 21:18:00,SystemResetWarning,0827.0,5.00,000.00,029.4,029.0,000.0,037.4,031.3,040.6,0000.5,0029.56,0012.66,0011.41
2024-06-10 21:19:00,SystemResetWarning,0827.0,4.99,000.00,029.4,028.9,000.0,037.5,031.3,040.0,0000.0,0030.10,0012.67,0011.44
2024-06-10 21:20:00,SystemResetWarning,0826.9,5.00,000.00,029.3,027.3,000.0,037.5,030.5,040.7,0000.0,0029.53,0012.67,0011.45
2024-06-10 21:21:00,SystemResetWarning,0826.9,5.00,000.00,028.9,025.8,000.0,037.6,029.7,040.9,0000.0,0028.83,0012.68,0011.46
2024-06-10 21:22:00,SystemResetWarning,0827.0,5.01,000.00,028.7,025.8,000.0,037.5,029.6,041.5,0000.5,0028.76,0012.66,0011.43
2024-06-10 21:23:00,SystemResetWarning,0827.0,5.01,000.00,028.6,026.2,000.0,037.4,029.8,041.5,0000.9,0028.90,0012.65,0011.40
2024-06-10 21:24:00,SystemResetWarning,0827.1,5.00,000.00,028.6,026.6,000.0,037.3,030.1,041.3,0000.2,0027.78,0012.65,0011.38
2024-06-10 21:25:00,SystemResetWarning,0827.1,5.00,000.00,028.7,027.1,000.0,037.2,030.3,040.5,0000.3,0028.29,0012.67,0011.36
2024-06-10 21:26:00,SystemResetWarning,0827.1,5.00,000.00,028.8,027.5,000.0,037.2,030.5,040.5,0000.5,0027.83,0012.61,0011.34
2024-06-10 21:27:00,SystemResetWarning,0827.1,5.00,000.00,028.8,027.8,000.0,037.2,030.7,042.0,0000.7,0028.67,0012.63,0011.32
2024-06-10 21:28:00,SystemResetWarning,0827.1,5.00,000.00,028.9,028.1,000.0,037.2,030.8,042.9,0000.7,0028.29,0012.70,0011.31
2024-06-10 21:29:00,SystemResetWarning,0827.1,5.00,000.00,029.0,028.3,000.0,037.2,030.9,043.5,0001.1,0027.43,0012.71,0011.27
2024-06-10 21:30:00,SystemResetWarning,0827.1,5.00,000.00,029.1,028.5,000.0,037.3,031.0,043.7,0000.6,0026.30,0012.74,0011.23
2024-06-10 21:31:00,SystemResetWarning,0827.1,5.00,000.00,029.2,028.7,000.0,037.3,031.1,043.3,0000.3,0025.26,0012.76,0011.19
2024-06-10 21:32:00,SystemResetWarning,0827.1,5.00,000.00,029.3,028.8,000.0,037.3,031.2,043.2,0000.4,0025.24,0012.76,0011.15
2024-06-10 21:33:00,SystemResetWarning,0827.1,5.00,000.00,029.3,028.9,000.0,037.4,031.3,043.1,0000.1,0025.87,0012.76,0011.13
2024-06-10 21:34:00,SystemResetWarning,0827.1,4.99,000.00,029.4,029.0,000.0,037.4,031.4,041.7,0000.4,0025.57,0012.78,0011.10
2024-06-10 21:35:00,SystemResetWarning,0827.1,5.00,000.00,029.5,029.0,000.0,037.5,031.3,039.2,0000.6,0025.80,0012.79,0011.06
2024-06-10 21:36:00,SystemResetWarning,0827.1,4.99,000.00,029.3,027.3,000.0,037.6,030.5,038.9,0000.8,0024.98,0012.63,0011.00
2024-06-10 21:37:00,SystemResetWarning,0827.1,5.01,000.00,028.9,025.9,000.0,037.6,029.8,040.8,0001.3,0023.90,0012.56,0010.94
2024-06-10 21:38:00,SystemResetWarning,0827.1,5.01,000.00,028.7,025.8,000.0,037.5,029.7,041.0,0001.7,0024.19,0012.52,0010.87
2024-06-10 21:39:00,SystemResetWarning,0827.2,4.99,000.00,028.7,026.2,000.0,037.4,029.8,040.7,0001.8,0022.77,0012.44,0010.80
2024-06-10 21:40:00,SystemResetWarning,0827.1,5.00,000.00,028.7,026.7,000.0,037.3,030.1,040.5,0001.8,0022.40,0012.29,0010.68
2024-06-10 21:41:00,SystemResetWarning,0827.2,5.00,000.00,028.8,027.1,000.0,037.3,030.4,040.9,0001.9,0021.27,0012.18,0010.58
2024-06-10 21:42:00,SystemResetWarning,0827.2,4.99,000.00,028.8,027.5,000.0,037.2,030.6,040.9,0001.9,0021.87,0012.07,0010.49
2024-06-10 21:43:00,SystemResetWarning,0827.1,5.00,000.00,028.9,027.8,000.0,037.2,030.7,039.4,0001.7,0021.52,0011.93,0010.36
2024-06-10 21:44:00,SystemResetWarning,0827.2,5.00,000.00,029.0,028.1,000.0,037.3,030.8,036.9,0002.3,0020.98,0011.71,0010.18
2024-06-10 21:45:00,SystemResetWarning,0827.1,4.99,000.00,029.0,028.3,000.0,037.3,030.9,036.8,0002.1,0020.32,0011.39,0009.93
2024-06-10 21:46:00,SystemResetWarning,0827.1,5.00,000.00,029.1,028.5,000.0,037.3,031.0,036.3,0001.9,0019.79,0011.08,0009.67
2024-06-10 21:47:00,SystemResetWarning,0827.0,5.00,000.00,029.2,028.6,000.0,037.3,031.1,034.0,0001.1,0019.87,0010.86,0009.42
2024-06-10 21:48:00,SystemResetWarning,0826.9,5.00,000.00,029.3,028.8,000.0,037.3,031.2,032.2,0000.7,0019.80,0010.63,0009.15
2024-06-10 21:49:00,SystemResetWarning,0826.9,5.01,000.00,029.3,028.9,000.0,037.4,031.3,031.0,0002.3,0018.66,0010.29,0008.81
2024-06-10 21:50:00,SystemResetWarning,0826.8,5.00,000.00,029.4,029.0,000.0,037.4,031.3,030.4,0001.8,0018.14,0009.90,0008.41
2024-06-10 21:51:00,SystemResetWarning,0826.8,5.01,000.00,029.5,029.1,000.0,037.5,031.4,029.8,0000.0,0017.77,0009.47,0008.01
2024-06-10 21:52:00,SystemResetWarning,0826.9,5.00,000.00,029.5,029.2,000.0,037.5,031.4,030.1,0000.0,0017.29,0009.05,0007.63
2024-06-10 21:53:00,SystemResetWarning,0826.8,4.99,000.00,029.5,028.5,000.0,037.6,031.0,029.5,0000.0,0016.70,0008.63,0007.22
2024-06-10 21:54:00,SystemResetWarning,0826.6,5.00,000.00,029.2,026.7,000.0,037.7,030.2,028.3,0000.0,0016.02,0008.19,0006.82
2024-06-10 21:55:00,SystemResetWarning,0826.6,5.02,000.00,029.0,026.4,000.0,037.7,029.9,030.2,0000.0,0015.16,0007.81,0006.48
2024-06-10 21:56:00,SystemResetWarning,0826.4,4.99,000.00,028.9,026.7,000.0,037.6,030.1,031.0,0000.0,0014.42,0007.56,0006.23
2024-06-10 21:57:00,SystemResetWarning,0826.3,4.99,000.00,028.9,027.1,000.0,037.5,030.3,029.2,0000.0,0013.93,0007.35,0005.99
2024-06-10 21:58:00,SystemResetWarning,0826.2,5.00,000.00,029.0,027.4,000.0,037.4,030.5,026.4,0000.0,0013.41,0007.10,0005.74
2024-06-10 21:59:00,SystemResetWarning,0826.2,5.02,000.00,029.0,027.7,000.0,037.4,030.7,027.0,0000.0,0013.03,0006.82,0005.50
